QPF
0.04 0.04 0.04 0.06 0.07 0.08 0.09 0.08 0.06 0.05 0.05 0.06 0.05 0.06 0.08 0.08 0.09 0.07 0.05 0.04 0.05 0.07 0.11 0.14 0.13 0.14 0.14 0.14 0.16 0.16 0.15 0.15 0.14 0.13 0.13 0.13 0.12 0.09 0.08 0.08 0.07 0.07 0.06
0.04 0.05 0.06 0.07 0.08 0.08 0.09 0.09 0.08 0.09 0.09 0.08 0.07 0.07 0.07 0.08 0.10 0.09 0.08 0.06 0.04 0.05 0.08 0.14 0.16 0.17 0.15 0.14 0.13 0.13 0.13 0.13 0.12 0.12 0.12 0.13 0.13 0.12 0.11 0.09 0.08 0.07 0.07
0.07 0.11 0.12 0.09 0.07 0.07 0.07 0.07 0.07 0.10 0.08 0.08 0.08 0.08 0.07 0.06 0.07 0.08 0.07 0.07 0.05 0.05 0.07 0.10 0.11 0.12 0.14 0.14 0.15 0.16 0.14 0.14 0.14 0.13 0.12 0.13 0.12 0.11 0.10 0.09 0.09 0.08 0.08
0.06 0.08 0.09 0.08 0.08 0.08 0.07 0.08 0.08 0.09 0.09 0.11 0.11 0.10 0.09 0.08 0.06 0.07 0.07 0.08 0.08 0.08 0.07 0.08 0.10 0.12 0.13 0.14 0.17 0.19 0.17 0.16 0.16 0.14 0.15 0.14 0.13 0.12 0.10 0.09 0.09 0.09 0.08
0.07 0.06 0.06 0.06 0.08 0.08 0.07 0.08 0.09 0.09 0.10 0.10 0.10 0.11 0.10 0.09 0.09 0.09 0.08 0.07 0.07 0.07 0.07 0.07 0.09 0.12 0.13 0.15 0.16 0.18 0.17 0.17 0.19 0.18 0.16 0.15 0.13 0.11 0.10 0.09 0.10 0.10 0.09
0.06 0.08 0.08 0.08 0.09 0.09 0.08 0.09 0.10 0.10 0.11 0.12 0.13 0.12 0.09 0.09 0.09 0.10 0.10 0.09 0.07 0.06 0.07 0.07 0.08 0.08 0.10 0.13 0.14 0.15 0.15 0.14 0.17 0.20 0.19 0.16 0.14 0.11 0.09 0.08 0.09 0.12 0.12
0.05 0.07 0.08 0.09 0.10 0.09 0.11 0.13 0.13 0.13 0.12 0.13 0.13 0.12 0.10 0.09 0.09 0.10 0.10 0.09 0.08 0.06 0.06 0.07 0.09 0.10 0.11 0.12 0.13 0.13 0.13 0.13 0.14 0.16 0.18 0.17 0.15 0.12 0.08 0.07 0.07 0.08 0.11
0.06 0.07 0.07 0.08 0.10 0.10 0.10 0.12 0.14 0.14 0.15 0.15 0.16 0.15 0.12 0.10 0.09 0.08 0.09 0.09 0.08 0.06 0.05 0.06 0.10 0.14 0.12 0.12 0.11 0.09 0.10 0.11 0.12 0.13 0.13 0.14 0.13 0.13 0.11 0.08 0.07 0.06 0.08
0.08 0.08 0.07 0.08 0.10 0.12 0.12 0.11 0.12 0.14 0.16 0.16 0.15 0.16 0.14 0.12 0.10 0.08 0.07 0.08 0.07 0.06 0.05 0.06 0.10 0.15 0.16 0.16 0.14 0.10 0.08 0.07 0.08 0.10 0.11 0.11 0.12 0.13 0.13 0.12 0.09 0.07 0.06
0.07 0.07 0.06 0.07 0.08 0.08 0.07 0.07 0.10 0.14 0.15 0.15 0.14 0.14 0.13 0.14 0.16 0.14 0.10 0.07 0.06 0.05 0.04 0.07 0.11 0.12 0.13 0.14 0.13 0.09 0.06 0.05 0.05 0.06 0.08 0.10 0.10 0.11 0.13 0.15 0.12 0.09 0.08
0.05 0.05 0.04 0.04 0.04 0.04 0.06 0.07 0.09 0.11 0.12 0.11 0.12 0.14 0.14 0.13 0.14 0.14 0.13 0.09 0.06 0.04 0.03 0.05 0.08 0.07 0.09 0.10 0.09 0.07 0.06 0.05 0.04 0.05 0.05 0.06 0.07 0.09 0.11 0.13 0.14 0.12 0.12
0.03 0.02 0.02 0.02 0.02 0.02 0.04 0.06 0.06 0.08 0.09 0.10 0.11 0.13 0.15 0.15 0.14 0.12 0.11 0.12 0.10 0.06 0.05 0.05 0.05 0.05 0.07 0.09 0.07 0.06 0.06 0.05 0.05 0.04 0.05 0.05 0.05 0.05 0.07 0.09 0.14 0.16 0.13
0.02 0.01 0.01 0.01 0.01 0.02 0.03 0.05 0.05 0.05 0.06 0.07 0.08 0.10 0.12 0.12 0.12 0.12 0.11 0.11 0.10 0.09 0.09 0.07 0.05 0.05 0.06 0.07 0.06 0.06 0.04 0.03 0.04 0.04 0.05 0.06 0.05 0.05 0.05 0.05 0.07 0.11 0.12
0.01 0.01 0.01 0.01 0.01 0.02 0.02 0.05 0.07 0.06 0.05 0.05 0.06 0.08 0.09 0.09 0.09 0.09 0.08 0.09 0.08 0.08 0.07 0.06 0.06 0.06 0.06 0.06 0.06 0.06 0.04 0.04 0.04 0.04 0.04 0.05 0.06 0.05 0.05 0.04 0.05 0.06 0.08
0.01 0.01 0.00 0.01 0.01 0.01 0.02 0.03 0.06 0.09 0.09 0.08 0.08 0.09 0.09 0.07 0.08 0.09 0.09 0.09 0.08 0.07 0.07 0.06 0.05 0.05 0.05 0.05 0.06 0.06 0.06 0.05 0.05 0.05 0.04 0.05 0.05 0.05 0.06 0.05 0.05 0.06 0.07
0.01 0.01 0.01 0.01 0.01 0.01 0.01 0.03 0.05 0.07 0.09 0.10 0.11 0.10 0.10 0.07 0.07 0.07 0.09 0.09 0.08 0.07 0.07 0.05 0.04 0.04 0.04 0.05 0.05 0.05 0.07 0.07 0.07 0.06 0.05 0.05 0.05 0.05 0.05 0.05 0.04 0.04 0.04
0.01 0.01 0.01 0.01 0.01 0.01 0.01 0.01 0.02 0.03 0.06 0.08 0.11 0.13 0.14 0.10 0.08 0.08 0.08 0.08 0.08 0.08 0.07 0.05 0.04 0.04 0.04 0.05 0.06 0.05 0.05 0.06 0.06 0.06 0.05 0.05 0.05 0.05 0.06 0.05 0.04 0.03 0.03
0.01 0.01 0.01 0.01 0.01 0.00 0.01 0.01 0.02 0.03 0.04 0.07 0.11 0.13 0.15 0.13 0.10 0.10 0.09 0.09 0.08 0.08 0.07 0.07 0.06 0.05 0.05 0.05 0.05 0.05 0.04 0.05 0.05 0.04 0.04 0.03 0.03 0.04 0.06 0.07 0.06 0.04 0.03
0.01 0.01 0.01 0.01 0.01 0.01 0.01 0.01 0.02 0.02 0.03 0.04 0.07 0.10 0.12 0.12 0.09 0.08 0.08 0.08 0.07 0.06 0.05 0.05 0.04 0.04 0.05 0.05 0.05 0.05 0.04 0.04 0.04 0.04 0.05 0.05 0.04 0.04 0.04 0.06 0.06 0.05 0.04
0.01 0.01 0.01 0.01 0.01 0.01 0.01 0.01 0.01 0.02 0.02 0.02 0.04 0.07 0.11 0.14 0.10 0.06 0.07 0.09 0.08 0.06 0.05 0.05 0.05 0.04 0.04 0.03 0.05 0.07 0.06 0.05 0.04 0.04 0.05 0.06 0.05 0.04 0.04 0.04 0.05 0.04 0.03
0.01 0.01 0.02 0.02 0.01 0.01 0.01 0.00 0.01 0.01 0.02 0.02 0.03 0.04 0.07 0.12 0.15 0.09 0.07 0.08 0.08 0.06 0.05 0.04 0.04 0.04 0.04 0.04 0.06 0.07 0.07 0.07 0.06 0.06 0.07 0.07 0.08 0.08 0.07 0.05 0.05 0.04 0.03
0.01 0.01 0.01 0.01 0.01 0.01 0.01 0.01 0.01 0.01 0.02 0.02 0.02 0.03 0.03 0.04 0.07 0.08 0.05 0.05 0.06 0.06 0.05 0.04 0.03 0.03 0.04 0.05 0.05 0.06 0.07 0.08 0.07 0.06 0.07 0.07 0.07 0.08 0.08 0.06 0.05 0.04 0.03
0.02 0.02 0.01 0.01 0.02 0.02 0.01 0.01 0.01 0.01 0.01 0.01 0.02 0.02 0.02 0.04 0.03 0.05 0.05 0.03 0.04 0.05 0.04 0.03 0.03 0.04 0.04 0.05 0.05 0.05 0.06 0.08 0.09 0.08 0.08 0.08 0.08 0.08 0.07 0.05 0.03 0.03 0.02
0.02 0.02 0.02 0.03 0.03 0.02 0.01 0.01 0.00 0.01 0.02 0.01 0.01 0.02 0.02 0.03 0.04 0.04 0.05 0.04 0.03 0.04 0.04 0.03 0.03 0.03 0.03 0.03 0.04 0.04 0.04 0.05 0.06 0.06 0.08 0.08 0.07 0.07 0.08 0.08 0.06 0.03 0.03
0.01 0.02 0.02 0.02 0.02 0.02 0.01 0.01 0.01 0.01 0.02 0.01 0.01 0.01 0.02 0.02 0.03 0.06 0.06 0.05 0.04 0.05 0.04 0.03 0.02 0.01 0.01 0.01 0.02 0.03 0.03 0.04 0.05 0.06 0.07 0.07 0.06 0.06 0.07 0.07 0.07 0.05 0.03
0.01 0.01 0.01 0.01 0.02 0.02 0.01 0.01 0.01 0.01 0.02 0.02 0.02 0.02 0.03 0.03 0.02 0.03 0.06 0.06 0.05 0.06 0.05 0.04 0.03 0.02 0.02 0.01 0.01 0.02 0.04 0.06 0.07 0.06 0.07 0.08 0.07 0.07 0.08 0.07 0.07 0.06 0.05
MSLP
1014.04 1014.05 1014.04 1014.01 1013.99 1014.00 1014.03 1014.09 1014.16 1014.23 1014.26 1014.26 1014.21 1014.12 1014.02 1013.92 1013.85 1013.83 1013.87 1013.98 1014.15 1014.37 1014.62 1014.89 1015.16 1015.44 1015.71 1015.98 1016.25 1016.52 1016.79 1017.06 1017.32 1017.58 1017.84 1018.10 1018.35 1018.60 1018.82 1019.02 1019.19 1019.32 1019.40
1014.05 1013.98 1013.89 1013.79 1013.71 1013.65 1013.64 1013.67 1013.73 1013.81 1013.88 1013.91 1013.91 1013.87 1013.79 1013.69 1013.61 1013.56 1013.56 1013.62 1013.74 1013.91 1014.13 1014.38 1014.64 1014.91 1015.19 1015.46 1015.73 1016.00 1016.26 1016.51 1016.77 1017.03 1017.29 1017.55 1017.81 1018.06 1018.31 1018.53 1018.73 1018.89 1019.01
1014.05 1013.92 1013.75 1013.58 1013.43 1013.33 1013.28 1013.29 1013.34 1013.44 1013.53 1013.61 1013.64 1013.63 1013.58 1013.49 1013.39 1013.32 1013.28 1013.29 1013.36 1013.50 1013.68 1013.90 1014.15 1014.41 1014.67 1014.93 1015.18 1015.43 1015.67 1015.90 1016.14 1016.38 1016.62 1016.87 1017.13 1017.38 1017.64 1017.89 1018.12 1018.33 1018.51
1013.95 1013.75 1013.53 1013.30 1013.11 1012.97 1012.89 1012.89 1012.95 1013.06 1013.18 1013.29 1013.36 1013.38 1013.34 1013.27 1013.18 1013.09 1013.02 1013.01 1013.05 1013.14 1013.29 1013.48 1013.70 1013.93 1014.16 1014.39 1014.61 1014.83 1015.03 1015.24 1015.44 1015.65 1015.87 1016.10 1016.35 1016.60 1016.87 1017.14 1017.41 1017.67 1017.91
1013.64 1013.41 1013.16 1012.91 1012.70 1012.54 1012.46 1012.45 1012.52 1012.64 1012.77 1012.91 1013.01 1013.06 1013.07 1013.02 1012.95 1012.87 1012.81 1012.78 1012.80 1012.87 1012.98 1013.13 1013.31 1013.49 1013.68 1013.87 1014.05 1014.22 1014.39 1014.56 1014.73 1014.91 1015.10 1015.31 1015.54 1015.78 1016.05 1016.34 1016.65 1016.96 1017.26
1013.14 1012.90 1012.65 1012.41 1012.20 1012.05 1011.97 1011.97 1012.04 1012.16 1012.31 1012.46 1012.60 1012.69 1012.73 1012.74 1012.71 1012.67 1012.63 1012.62 1012.63 1012.68 1012.76 1012.87 1012.99 1013.13 1013.26 1013.39 1013.53 1013.66 1013.79 1013.93 1014.07 1014.22 1014.38 1014.56 1014.76 1014.99 1015.25 1015.55 1015.87 1016.22 1016.58
1012.50 1012.29 1012.07 1011.86 1011.68 1011.54 1011.48 1011.47 1011.54 1011.66 1011.82 1011.98 1012.14 1012.28 1012.38 1012.44 1012.48 1012.50 1012.51 1012.52 1012.55 1012.59 1012.64 1012.70 1012.77 1012.84 1012.91 1012.99 1013.08 1013.17 1013.28 1013.39 1013.51 1013.63 1013.77 1013.92 1014.09 1014.29 1014.52 1014.80 1015.12 1015.49 1015.87
1011.88 1011.71 1011.54 1011.37 1011.23 1011.12 1011.06 1011.05 1011.10 1011.21 1011.36 1011.53 1011.71 1011.88 1012.04 1012.18 1012.29 1012.38 1012.45 1012.51 1012.55 1012.58 1012.60 1012.61 1012.62 1012.63 1012.65 1012.68 1012.73 1012.79 1012.88 1012.97 1013.08 1013.19 1013.29 1013.41 1013.53 1013.68 1013.87 1014.11 1014.41 1014.76 1015.15
1011.41 1011.31 1011.19 1011.07 1010.96 1010.87 1010.80 1010.78 1010.81 1010.89 1011.01 1011.17 1011.36 1011.57 1011.78 1011.98 1012.17 1012.33 1012.46 1012.55 1012.61 1012.63 1012.62 1012.59 1012.54 1012.50 1012.46 1012.45 1012.47 1012.52 1012.60 1012.69 1012.78 1012.86 1012.94 1013.00 1013.07 1013.16 1013.28 1013.46 1013.70 1014.02 1014.39
1011.24 1011.18 1011.11 1011.03 1010.94 1010.85 1010.78 1010.73 1010.71 1010.75 1010.83 1010.97 1011.16 1011.38 1011.62 1011.88 1012.12 1012.33 1012.50 1012.62 1012.69 1012.69 1012.65 1012.58 1012.48 1012.39 1012.32 1012.28 1012.28 1012.32 1012.39 1012.48 1012.55 1012.61 1012.64 1012.64 1012.64 1012.64 1012.68 1012.78 1012.96 1013.22 1013.57
1011.37 1011.35 1011.31 1011.25 1011.17 1011.07 1010.97 1010.88 1010.82 1010.80 1010.84 1010.95 1011.11 1011.32 1011.58 1011.85 1012.12 1012.35 1012.55 1012.67 1012.73 1012.71 1012.64 1012.52 1012.39 1012.26 1012.16 1012.11 1012.10 1012.13 1012.20 1012.26 1012.31 1012.33 1012.29 1012.22 1012.13 1012.04 1011.98 1012.00 1012.10 1012.32 1012.63
1011.73 1011.74 1011.71 1011.66 1011.57 1011.45 1011.32 1011.19 1011.08 1011.01 1011.00 1011.06 1011.18 1011.37 1011.60 1011.86 1012.12 1012.36 1012.54 1012.65 1012.68 1012.64 1012.53 1012.38 1012.21 1012.06 1011.94 1011.88 1011.86 1011.89 1011.93 1011.97 1011.97 1011.92 1011.81 1011.65 1011.45 1011.26 1011.12 1011.05 1011.10 1011.27 1011.58
1012.20 1012.21 1012.18 1012.11 1012.01 1011.87 1011.71 1011.55 1011.41 1011.29 1011.23 1011.24 1011.31 1011.45 1011.64 1011.86 1012.08 1012.28 1012.43 1012.50 1012.50 1012.42 1012.28 1012.10 1011.92 1011.75 1011.62 1011.55 1011.52 1011.52 1011.53 1011.52 1011.45 1011.32 1011.11 1010.85 1010.55 1010.26 1010.03 1009.90 1009.91 1010.07 1010.39
1012.61 1012.60 1012.55 1012.47 1012.36 1012.21 1012.05 1011.87 1011.70 1011.55 1011.45 1011.41 1011.43 1011.50 1011.63 1011.79 1011.95 1012.09 1012.18 1012.21 1012.16 1012.05 1011.89 1011.70 1011.50 1011.32 1011.19 1011.10 1011.04 1011.01 1010.97 1010.88 1010.73 1010.50 1010.18 1009.81 1009.41 1009.03 1008.73 1008.56 1008.56 1008.73 1009.09
1012.84 1012.80 1012.73 1012.64 1012.53 1012.39 1012.23 1012.06 1011.88 1011.72 1011.59 1011.50 1011.46 1011.47 1011.53 1011.60 1011.69 1011.76 1011.79 1011.77 1011.69 1011.56 1011.38 1011.18 1010.98 1010.80 1010.65 1010.54 1010.45 1010.37 1010.25 1010.08 1009.83 1009.48 1009.05 1008.57 1008.07 1007.62 1007.27 1007.08 1007.09 1007.31 1007.73
1012.81 1012.75 1012.67 1012.59 1012.49 1012.37 1012.23 1012.08 1011.92 1011.76 1011.61 1011.49 1011.39 1011.34 1011.31 1011.31 1011.32 1011.32 1011.30 1011.24 1011.13 1010.98 1010.80 1010.60 1010.40 1010.22 1010.06 1009.92 1009.78 1009.63 1009.44 1009.17 1008.80 1008.34 1007.80 1007.22 1006.64 1006.13 1005.75 1005.56 1005.60 1005.87 1006.38
1012.58 1012.49 1012.42 1012.34 1012.27 1012.19 1012.09 1011.97 1011.84 1011.69 1011.52 1011.37 1011.23 1011.11 1011.01 1010.94 1010.88 1010.83 1010.76 1010.67 1010.55 1010.40 1010.22 1010.02 1009.83 1009.64 1009.46 1009.28 1009.09 1008.87 1008.59 1008.23 1007.76 1007.20 1006.56 1005.89 1005.25 1004.70 1004.30 1004.11 1004.18 1004.51 1005.09
1012.24 1012.15 1012.08 1012.02 1011.98 1011.94 1011.88 1011.80 1011.69 1011.55 1011.38 1011.19 1011.01 1010.83 1010.67 1010.54 1010.43 1010.33 1010.24 1010.13 1010.01 1009.86 1009.69 1009.51 1009.31 1009.11 1008.90 1008.69 1008.44 1008.15 1007.79 1007.34 1006.79 1006.15 1005.44 1004.71 1004.02 1003.44 1003.03 1002.85 1002.94 1003.32 1003.96
1011.92 1011.83 1011.77 1011.74 1011.72 1011.71 1011.69 1011.64 1011.54 1011.40 1011.22 1011.00 1010.78 1010.55 1010.35 1010.17 1010.02 1009.90 1009.79 1009.68 1009.56 1009.43 1009.27 1009.08 1008.88 1008.65 1008.42 1008.15 1007.85 1007.50 1007.08 1006.57 1005.96 1005.27 1004.53 1003.77 1003.06 1002.46 1002.04 1001.86 1001.96 1002.34 1003.01
1011.72 1011.63 1011.58 1011.56 1011.57 1011.58 1011.57 1011.53 1011.43 1011.28 1011.08 1010.83 1010.57 1010.31 1010.07 1009.86 1009.69 1009.56 1009.45 1009.34 1009.23 1009.10 1008.94 1008.75 1008.53 1008.27 1007.99 1007.69 1007.34 1006.94 1006.48 1005.94 1005.32 1004.62 1003.87 1003.11 1002.40 1001.80 1001.37 1001.17 1001.25 1001.62 1002.27
1011.68 1011.59 1011.54 1011.52 1011.53 1011.53 1011.52 1011.47 1011.36 1011.19 1010.96 1010.69 1010.40 1010.11 1009.85 1009.62 1009.45 1009.31 1009.20 1009.10 1009.00 1008.86 1008.70 1008.48 1008.23 1007.94 1007.61 1007.26 1006.88 1006.46 1005.98 1005.45 1004.84 1004.17 1003.46 1002.73 1002.04 1001.44 1001.00 1000.78 1000.82 1001.13 1001.72
1011.76 1011.66 1011.60 1011.57 1011.55 1011.54 1011.51 1011.43 1011.29 1011.10 1010.84 1010.55 1010.24 1009.93 1009.66 1009.43 1009.25 1009.12 1009.02 1008.92 1008.82 1008.67 1008.48 1008.24 1007.94 1007.61 1007.24 1006.85 1006.44 1006.01 1005.55 1005.05 1004.49 1003.89 1003.24 1002.57 1001.92 1001.35 1000.90 1000.64 1000.61 1000.84 1001.34
1011.89 1011.77 1011.67 1011.61 1011.57 1011.52 1011.45 1011.34 1011.18 1010.96 1010.68 1010.37 1010.05 1009.74 1009.46 1009.24 1009.06 1008.94 1008.84 1008.75 1008.63 1008.47 1008.25 1007.97 1007.62 1007.24 1006.83 1006.41 1005.98 1005.56 1005.14 1004.69 1004.22 1003.70 1003.14 1002.55 1001.96 1001.41 1000.96 1000.65 1000.54 1000.67 1001.06
1011.96 1011.80 1011.67 1011.57 1011.49 1011.41 1011.30 1011.16 1010.97 1010.73 1010.44 1010.12 1009.79 1009.48 1009.21 1008.99 1008.83 1008.71 1008.61 1008.51 1008.38 1008.20 1007.94 1007.62 1007.24 1006.81 1006.36 1005.92 1005.49 1005.09 1004.71 1004.33 1003.94 1003.52 1003.07 1002.57 1002.04 1001.53 1001.07 1000.72 1000.54 1000.56 1000.82
1011.90 1011.70 1011.54 1011.40 1011.28 1011.16 1011.02 1010.86 1010.65 1010.40 1010.10 1009.77 1009.45 1009.14 1008.87 1008.66 1008.50 1008.37 1008.27 1008.16 1008.02 1007.81 1007.53 1007.18 1006.76 1006.31 1005.83 1005.38 1004.95 1004.57 1004.24 1003.93 1003.62 1003.30 1002.94 1002.53 1002.08 1001.61 1001.15 1000.77 1000.51 1000.43 1000.56
1011.70 1011.47 1011.26 1011.09 1010.94 1010.80 1010.65 1010.47 1010.25 1009.99 1009.69 1009.36 1009.03 1008.71 1008.44 1008.22 1008.05 1007.91 1007.80 1007.68 1007.52 1007.30 1007.00 1006.63 1006.20 1005.73 1005.25 1004.79 1004.37 1004.01 1003.71 1003.46 1003.23 1002.99 1002.71 1002.38 1002.00 1001.57 1001.12 1000.72 1000.40 1000.23 1000.25
Thickness
5717 5716 5713 5711 5711 5710 5708 5706 5706 5704 5703 5703 5702 5702 5701 5700 5700 5699 5700 5698 5696 5695 5695 5695 5696 5695 5695 5695 5695 5695 5695 5695 5696 5696 5696 5696 5695 5695 5695 5695 5695 5695 5694
5712 5710 5708 5707 5706 5704 5703 5702 5701 5700 5698 5697 5697 5697 5696 5695 5694 5693 5694 5694 5693 5692 5691 5691 5691 5691 5691 5692 5692 5692 5692 5692 5693 5693 5693 5693 5692 5692 5692 5692 5692 5692 5692
5706 5705 5704 5702 5701 5699 5698 5696 5696 5695 5694 5693 5691 5690 5690 5689 5689 5688 5688 5689 5690 5689 5688 5687 5687 5687 5687 5688 5688 5689 5689 5689 5690 5690 5690 5690 5689 5689 5689 5689 5690 5690 5690
5701 5699 5699 5698 5695 5693 5692 5691 5690 5688 5687 5686 5685 5685 5685 5684 5682 5682 5682 5682 5683 5684 5684 5683 5683 5683 5683 5683 5684 5685 5684 5685 5685 5686 5686 5687 5687 5686 5686 5687 5687 5687 5687
5696 5695 5693 5691 5689 5688 5686 5685 5683 5681 5679 5678 5679 5679 5679 5678 5676 5676 5676 5676 5676 5676 5678 5678 5677 5678 5678 5678 5679 5680 5680 5681 5681 5682 5682 5683 5683 5683 5684 5684 5684 5684 5684
5691 5689 5688 5685 5684 5682 5680 5677 5675 5674 5672 5672 5673 5674 5673 5672 5671 5670 5670 5671 5670 5670 5671 5673 5673 5674 5673 5673 5674 5674 5675 5676 5676 5677 5678 5679 5679 5679 5680 5680 5680 5680 5680
5685 5683 5682 5680 5678 5676 5673 5671 5668 5667 5666 5665 5664 5665 5667 5668 5666 5665 5664 5664 5665 5665 5666 5666 5667 5669 5669 5669 5669 5669 5669 5670 5671 5672 5673 5674 5675 5675 5676 5676 5676 5676 5676
5680 5679 5676 5674 5672 5670 5667 5665 5661 5659 5659 5658 5655 5654 5655 5658 5658 5659 5657 5657 5658 5660 5660 5661 5661 5661 5663 5665 5666 5665 5664 5665 5665 5667 5668 5669 5670 5671 5672 5672 5672 5672 5672
5675 5672 5670 5668 5666 5664 5661 5658 5656 5653 5650 5650 5649 5645 5643 5645 5648 5652 5651 5651 5651 5652 5653 5655 5656 5656 5657 5659 5660 5660 5660 5660 5660 5662 5663 5664 5665 5666 5667 5667 5668 5668 5667
5670 5667 5665 5662 5659 5658 5655 5653 5651 5647 5644 5643 5642 5640 5639 5638 5635 5639 5643 5644 5644 5644 5646 5647 5649 5649 5651 5652 5653 5654 5654 5654 5655 5656 5657 5658 5659 5660 5661 5662 5663 5663 5663
5665 5662 5659 5656 5654 5652 5649 5646 5644 5641 5639 5637 5636 5635 5634 5633 5632 5630 5632 5635 5637 5638 5639 5639 5641 5643 5644 5645 5646 5648 5649 5649 5650 5650 5651 5653 5654 5655 5656 5657 5658 5659 5659
5661 5657 5654 5651 5648 5646 5643 5641 5639 5637 5634 5631 5630 5629 5628 5627 5627 5626 5626 5627 5628 5631 5632 5633 5635 5637 5638 5639 5641 5642 5642 5643 5645 5645 5646 5647 5648 5650 5651 5652 5653 5654 5654
5656 5651 5649 5645 5643 5640 5638 5636 5634 5631 5629 5626 5625 5624 5624 5624 5623 5622 5621 5622 5622 5625 5626 5628 5630 5631 5633 5634 5635 5635 5636 5638 5639 5640 5641 5641 5642 5644 5645 5647 5648 5649 5649
5650 5645 5642 5640 5637 5635 5633 5631 5630 5627 5625 5622 5621 5619 5618 5619 5619 5618 5616 5616 5616 5619 5621 5622 5624 5625 5626 5628 5628 5629 5631 5633 5633 5634 5635 5636 5636 5638 5639 5641 5642 5643 5643
5644 5640 5637 5635 5633 5630 5628 5626 5625 5622 5620 5618 5617 5615 5615 5615 5615 5614 5613 5613 5611 5612 5616 5617 5618 5620 5620 5621 5622 5623 5626 5627 5627 5628 5629 5630 5631 5632 5633 5635 5636 5636 5636
5637 5634 5632 5630 5628 5626 5624 5622 5621 5618 5615 5613 5611 5609 5609 5610 5609 5609 5609 5609 5608 5608 5610 5613 5613 5615 5615 5616 5616 5618 5620 5620 5620 5621 5623 5624 5625 5626 5627 5628 5629 5630 5630
5632 5629 5627 5625 5623 5622 5619 5617 5615 5613 5610 5608 5606 5605 5603 5603 5604 5604 5604 5604 5604 5605 5605 5608 5609 5609 5608 5609 5611 5612 5614 5616 5618 5616 5616 5618 5619 5620 5621 5622 5623 5623 5623
5627 5625 5623 5621 5619 5617 5614 5612 5610 5608 5606 5603 5601 5600 5599 5600 5599 5599 5599 5599 5599 5600 5600 5600 5602 5603 5603 5604 5605 5606 5609 5611 5612 5612 5611 5612 5613 5614 5615 5616 5616 5617 5617
5624 5622 5619 5616 5614 5612 5610 5608 5607 5605 5602 5600 5598 5597 5596 5595 5595 5595 5594 5595 5596 5597 5597 5596 5597 5598 5598 5600 5600 5601 5603 5603 5606 5607 5606 5606 5607 5607 5608 5609 5609 5610 5610
5621 5618 5615 5613 5610 5609 5606 5604 5603 5601 5599 5597 5596 5594 5593 5592 5591 5591 5591 5591 5591 5592 5592 5592 5593 5594 5594 5595 5595 5596 5596 5598 5599 5601 5601 5602 5602 5602 5603 5604 5604 5604 5605
5618 5615 5612 5610 5607 5605 5603 5599 5598 5598 5597 5595 5594 5593 5592 5588 5586 5585 5586 5587 5587 5587 5588 5589 5589 5590 5591 5590 5590 5591 5590 5591 5593 5595 5596 5598 5599 5600 5600 5599 5599 5599 5599
5614 5612 5610 5607 5605 5603 5597 5593 5591 5594 5594 5593 5592 5591 5590 5588 5584 5581 5580 5579 5579 5581 5583 5582 5585 5585 5584 5585 5584 5584 5584 5585 5586 5590 5590 5592 5595 5596 5597 5598 5597 5595 5594
5611 5609 5607 5605 5602 5598 5593 5590 5588 5589 5592 5591 5590 5588 5588 5587 5583 5582 5580 5577 5577 5575 5574 5576 5579 5579 5580 5581 5579 5579 5579 5580 5580 5582 5583 5586 5589 5591 5593 5595 5593 5591 5590
5609 5607 5605 5603 5600 5597 5592 5588 5586 5588 5590 5589 5588 5586 5584 5582 5580 5576 5577 5578 5578 5578 5575 5574 5574 5575 5576 5575 5574 5574 5575 5575 5576 5579 5580 5581 5585 5588 5591 5591 5589 5587 5586
5607 5605 5604 5602 5599 5596 5591 5587 5583 5589 5590 5589 5587 5585 5582 5579 5573 5570 5572 5574 5574 5574 5573 5571 5569 5569 5569 5568 5568 5569 5572 5574 5575 5577 5579 5578 5581 5583 5586 5588 5587 5585 5584
5607 5605 5603 5601 5598 5596 5591 5586 5582 5587 5588 5587 5586 5583 5577 5573 5568 5565 5567 5568 5569 5570 5570 5571 5568 5568 5569 5568 5565 5566 5569 5570 5572 5574 5577 5575 5577 5578 5580 5584 5585 5583 5582